TAX73JC EDDH-BIKF

Flight info

Callsign TAX73JC
Flight time N/A
Altitude 34000
Route ELSOB3G/33 ELSOB Y348 OMWEG DCT BADOS DCT IPSUB DCT VAXIT DCT ARTEX DCT LAMRO DCT NALAN/M083F340 DCT ALDAN DCT ASRUN ASRUN4N
Aircraft B77L/H-SDE1E2E3FGHIJ2J3J4J5M1RWXY/LB1D1

Departure

Time N/A
Airport Hamburg Helmut Schmidt Airport (EDDH)

Arrival

Time 2026-05-05 16:01
Airport Keflavik International Airport (BIKF)
Time Latitude Longitude Altitude Speed Heading
2026-05-05 15:59 63.92205 -22.60542 1105 ft 141 kts
2026-05-05 15:59 63.93183 -22.60541 880 ft 142 kts
2026-05-05 15:59 63.94168 -22.60539 659 ft 143 kts
2026-05-05 16:00 63.95166 -22.60544 461 ft 143 kts
2026-05-05 16:00 63.96155 -22.60549 264 ft 140 kts
2026-05-05 16:00 63.97077 -22.60548 172 ft 122 kts
2026-05-05 16:00 63.97808 -22.60541 177 ft 87 kts
2026-05-05 16:01 63.98292 -22.60529 178 ft 52 kts
2026-05-05 16:01 63.98567 -22.60542 181 ft 35 kts 360°
2026-05-05 16:01 63.98791 -22.60541 180 ft 30 kts 359°
2026-05-05 16:01 63.99000 -22.60539 181 ft 30 kts
2026-05-05 16:02 63.99149 -22.60546 182 ft 14 kts 340°
2026-05-05 16:02 63.99173 -22.60734 175 ft 14 kts 270°
2026-05-05 16:02 63.99173 -22.60820 172 ft 3 kts 270°
2026-05-05 16:02 63.99173 -22.60826 172 ft 0 kts 270°
2026-05-05 16:03 63.99173 -22.60871 170 ft 7 kts 270°
2026-05-05 16:04 63.99174 -22.61005 167 ft 7 kts 270°
2026-05-05 16:04 63.99174 -22.61114 165 ft 8 kts 270°
2026-05-05 16:04 63.99174 -22.61266 161 ft 11 kts 269°
2026-05-05 16:04 63.99173 -22.61469 157 ft 14 kts 270°
2026-05-05 16:05 63.99173 -22.61721 151 ft 17 kts 270°
2026-05-05 16:05 63.99173 -22.62016 147 ft 19 kts 269°
2026-05-05 16:05 63.99172 -22.62314 147 ft 14 kts 270°
2026-05-05 16:05 63.99173 -22.62501 147 ft 10 kts 270°
2026-05-05 16:06 63.99184 -22.62654 147 ft 9 kts 312°
2026-05-05 16:06 63.99245 -22.62702 147 ft 9 kts 328°
2026-05-05 16:06 63.99292 -22.62741 147 ft 7 kts 353°
2026-05-05 16:06 63.99341 -22.62744 147 ft 7 kts
2026-05-05 16:07 63.99389 -22.62722 147 ft 7 kts 355°
2026-05-05 16:07 63.99409 -22.62819 147 ft 7 kts 269°
2026-05-05 16:07 63.99407 -22.62895 147 ft 0 kts 271°
2026-05-05 16:07 63.99407 -22.62899 147 ft 1 kts 271°
2026-05-05 16:08 63.99407 -22.62905 147 ft 0 kts 271°